Showing default

IRIDIUM 143, 43258

Orbit data source: Space-Track

IRIDIUM 143, 43258 is a payload satellite owned by Iridium (US) in LEO that was launched on Fri, 30 Mar 2018 UTC via an FALCON 9 launch vehicle from the Air Force Western Test Range (AFWTR). Payload-class satellites include a variety of spacecraft equipped with specific instruments for various scientific and technological missions. These include communications satellites like Starlink; space stations such as the ISS; scientific satellites like the Hubble; Earth observation satellites from companies like Planet Labs, Umbra, and HawkEye 360; GPS; miniature CubeSats for education and research; and military/defense satellites.

Loading next visibility...
Identifier
43258, 2018-030K
Orbit
LEO
Country
Flag of USUS
Related business
Manufacturer
OATK SSG Gilbert
Mission
Operational Commercial Communications
Bus & Motor
ELITEBUS, Unknown motor
Mass
860 kg wet, 700 kg dry
Launch date (UTC)
2018-03-30 (8 years ago)
Launch vehicle
FALCON 9
Launch site
Air Force Western Test Range (AFWTR)
Object type
Payload
Rocket body
Debris
Shape & HBR
Trap Box + 2 Pan, 4.8 m
Radar Cross Section
10.154 m², Large (>1 m²)

Expand to show TLE details & history
Last TLE update: 2 days ago

TLE from 2 days ago
0 IRIDIUM 143
1 43258U 18030K   26171.40823396  .00000108  00000-0  31381-4 0  9995
2 43258  86.3966 289.2114 0002135  96.8149 263.3289 14.34218119430551
Epoch: 2026-06-20T09:47Z
TLE epoch observation values (Epoch: 2026-06-20T09:47:51.414Z)
Latitude
-0.00008°
Longitude
-126.37612°
Altitude
780.895 km
Speed
7.463 km/s
True Right ascension
19h 16m 50s
True Declination
0° 00' 00"
Sunlit
Object was in full shadow at epoch
Visualization orbit readout
Latitude
Unknown
Longitude
Unknown
Altitude
Unknown
Speed
Unknown
Apparent Right ascension
Unknown
Apparent Declination
Unknown
Sunlit
N/A
Visualization observer readout
Local Sidereal Time
23:19:49
Azimuth
Unknown
Elevation
Unknown
Doppler factor
Unknown
Orbital elements
Apogee altitude
776.158 km
Perigee altitude
773.103 km
Semi-major axis
7,152.767 km
Eccentricity
0.00021
Inclination
86.3966°
RAAN
289.2114°
Arg. of periapsis
96.8149°
True anomaly
263.3046°
Mean anomaly
263.3289°
Eccentric anomaly
263.31675°
Mean motion
3.58783 °/min
Orbital period
100.34 mins
BSTAR
0.000031381
Loading maneuver chart data...
Computing Atmospheric mass density...
Loading historical data...
Loading historical data...
Loading historical data...
Loading historical data...
Loading historical data...
Loading historical data...
Loading historical data...

Documentation

Showing up to 5 results
|